Tucson, AZ

4:00 PM MST on October 22, 2019 (GMT -0700)
Tucson International

Weather History for KTUS - August, 2019

Change the Weather History Date:

Tuesday, August 6, 2019

  Actual Average Record
Temperature  
Mean Temperature 89 °F 86 °F  
Max Temperature 100 °F 97 °F 109 °F (1995)
Min Temperature 78 °F 74 °F 63 °F (1928)
Degree Days  
Heating Degree Days 0 0  
Month to date heating degree days 0 0  
Since 1 June heating degree days 0 0  
Since 1 July heating degree days 0 0  
Cooling Degree Days 24 21  
Month to date cooling degree days 154 126  
Year to date cooling degree days 1931 1905  
Since 1 June cooling degree days 1559 1403  
Growing Degree Days 39 (Base 50)    
Moisture  
Dew Point 63 °F    
Average Humidity 48    
Maximum Humidity 66    
Minimum Humidity 25    
Precipitation  
Precipitation T in 0.08 in 1.88 in (1955)
Month to date precipitation 0.24 0.51  
Year to date precipitation 6.34 6.03  
Sea Level Pressure  
Sea Level Pressure 29.88 in    
Wind  
Wind Speed 7 mph (SSE)    
Max Wind Speed 23 mph    
Max Gust Speed 32 mph    
Visibility 10 miles    
Events Rain , Thunderstorm    
T = Trace of Precipitation, MM = Missing Value Source: NWS Daily Summary

Daily Weather History Graph

Daily Weather History Graph

Search for Another Location

Airport or City:

Astronomy

Aug. 06, 2019 Rise Set
Actual Time 5:42 AM MST 7:16 PM MST
Civil Twilight 5:15 AM MST 7:43 PM MST
Nautical Twilight 4:44 AM MST 8:14 PM MST
Astronomical Twilight 4:10 AM MST 8:47 PM MST
Moon 11:49 AM MST (8/6) 11:27 PM MST (8/6)
Length of Visible Light 14h 27m
Length of Day
13h 34m
Waxing Crescent, 40% of the Moon is Illuminated
Aug 6
Waxing Crescent
Aug 7
First Quarter
Aug 15
Full
Aug 23
Last Quarter
Aug 30
New

Hourly Weather History & Observations

Time (MST) Temp. Heat Index Dew Point Humidity Pressure Visibility Wind Dir Wind Speed Gust Speed Precip Events Conditions
12:53 AM 79.0 °F - 66.0 °F 64% 29.80 in 10.0 mi ENE 10.4 mph - N/A   Scattered Clouds
1:53 AM 79.0 °F - 66.0 °F 64% 29.80 in 10.0 mi West 3.5 mph - N/A   Mostly Cloudy
2:53 AM 79.0 °F - 64.9 °F 62% 29.81 in 10.0 mi SSE 5.8 mph - N/A   Partly Cloudy
3:53 AM 78.1 °F - 66.0 °F 66% 29.83 in 10.0 mi South 6.9 mph - N/A   Mostly Cloudy
4:53 AM 78.1 °F - 64.9 °F 64% 29.84 in 10.0 mi SE 11.5 mph - N/A   Mostly Cloudy
5:53 AM 80.1 °F 81.5 °F 63.0 °F 56% 29.90 in 10.0 mi East 9.2 mph - N/A   Mostly Cloudy
6:53 AM 81.0 °F 82.2 °F 63.0 °F 54% 29.90 in 10.0 mi SE 5.8 mph - N/A   Clear
7:53 AM 79.0 °F - 64.9 °F 62% 29.92 in 10.0 mi South 5.8 mph - N/A   Clear
8:53 AM 84.0 °F 84.9 °F 63.0 °F 49% 29.92 in 10.0 mi SSE 6.9 mph - N/A   Scattered Clouds
9:53 AM 89.1 °F 89.3 °F 62.1 °F 40% 29.91 in 10.0 mi ESE 5.8 mph - N/A   Clear
10:53 AM 91.9 °F 91.5 °F 60.1 °F 34% 29.90 in 10.0 mi Variable 3.5 mph - N/A   Clear
11:53 AM 93.9 °F 92.9 °F 57.9 °F 30% 29.88 in 10.0 mi Calm Calm - N/A   Clear
12:53 PM 95.0 °F 94.0 °F 57.9 °F 29% 29.86 in 10.0 mi Variable 4.6 mph - N/A   Clear
1:53 PM 98.1 °F 97.2 °F 57.9 °F 26% 29.83 in 10.0 mi Variable 4.6 mph - N/A   Clear
2:53 PM 98.1 °F 96.8 °F 57.0 °F 25% 29.80 in 10.0 mi West 5.8 mph - N/A   Clear
3:53 PM 97.0 °F 95.3 °F 55.9 °F 25% 29.78 in 10.0 mi NW 8.1 mph - N/A Thunderstorm Clear
4:14 PM 95.0 °F 94.0 °F 57.9 °F 29% 29.93 in 10.0 mi West 16.1 mph 25.3 mph N/A Thunderstorm Mostly Cloudy
4:33 PM 88.0 °F 88.7 °F 63.0 °F 43% 29.96 in 9.0 mi WSW 19.6 mph 31.1 mph N/A Thunderstorm Thunderstorm
4:53 PM 82.9 °F 84.4 °F 64.0 °F 53% 29.81 in 10.0 mi West 9.2 mph - 0.00 in Thunderstorm Thunderstorm
5:18 PM 88.0 °F 88.4 °F 62.1 °F 42% 29.94 in 10.0 mi East 6.9 mph - N/A Thunderstorm Partly Cloudy
5:44 PM 89.1 °F 90.0 °F 63.0 °F 42% 29.94 in 10.0 mi NE 3.5 mph - N/A   Clear
5:53 PM 90.0 °F 90.0 °F 61.0 °F 38% 29.80 in 10.0 mi Calm Calm - N/A   Scattered Clouds
6:53 PM 90.0 °F 90.0 °F 61.0 °F 38% 29.84 in 10.0 mi East 9.2 mph - N/A   Clear
7:53 PM 89.1 °F 88.2 °F 59.0 °F 36% 29.86 in 10.0 mi SSE 16.1 mph - N/A   Mostly Cloudy
8:18 PM 84.0 °F 85.8 °F 64.9 °F 53% 30.02 in 10.0 mi SSW 19.6 mph 32.2 mph N/A Thunderstorm Overcast
8:25 PM 82.9 °F 84.6 °F 64.9 °F 54% 30.03 in 10.0 mi SSW 15.0 mph 29.9 mph N/A Thunderstorm Mostly Cloudy
8:53 PM 82.0 °F 83.8 °F 64.9 °F 56% 29.91 in 10.0 mi SSW 10.4 mph - N/A   Partly Cloudy
9:53 PM 80.1 °F 82.3 °F 66.9 °F 64% 29.92 in 10.0 mi South 12.7 mph - 0.00 in   Partly Cloudy
10:53 PM 81.0 °F 83.0 °F 66.0 °F 60% 29.91 in 10.0 mi SE 11.5 mph - N/A   Clear
11:53 PM 81.0 °F 83.0 °F 66.0 °F 60% 29.86 in 10.0 mi SE 10.4 mph - N/A   Partly Cloudy